Wind_Speed
29 31 31 33 32 35 36 36 37 38 43 43 44 44 44 45 46 49 53 54 56 59 59 61 63 63 57 59 60 64 67 69 67 73 76 73 77 70 72 71 68 64 56 51 55
31 32 33 34 38 40 39 39 40 43 46 44 45 47 47 48 50 52 55 55 57 59 62 64 66 68 67 64 64 61 62 65 78 71 67 70 78 75 69 70 73 65 55 53 50
31 30 34 37 38 40 39 39 40 39 40 44 49 51 51 50 50 50 57 57 58 59 61 66 69 70 71 73 72 69 53 73 77 80 75 72 74 69 71 73 71 66 60 60 56
32 33 35 36 36 35 36 35 35 40 44 44 46 49 54 55 55 53 58 58 60 62 63 63 67 73 75 76 80 74 67 67 79 81 82 72 73 74 66 64 69 71 64 65 62
34 36 35 37 38 39 41 42 42 43 46 51 52 53 56 57 58 58 60 62 61 62 65 67 67 70 75 80 82 77 79 75 74 81 82 80 71 74 69 67 72 72 63 63 62
34 35 37 40 41 43 44 46 49 49 54 57 60 62 67 67 60 59 62 60 63 64 66 68 69 72 72 78 83 85 85 83 81 77 82 83 78 81 66 72 65 69 66 67 63
35 36 38 43 46 43 45 46 51 54 61 63 62 68 71 69 63 59 56 60 63 67 69 66 67 68 73 78 82 89 92 88 84 81 79 78 80 73 73 73 67 71 64 62 57
34 37 37 40 44 47 50 54 59 64 68 70 71 74 70 62 56 54 58 65 68 67 65 68 67 66 69 78 84 88 95 94 87 89 83 85 69 75 79 79 71 66 58 70 60
36 38 45 49 52 50 52 61 66 70 71 74 76 75 61 50 56 64 68 69 62 58 57 61 63 63 70 79 85 90 87 91 94 92 91 87 76 77 82 81 77 64 63 58 85
39 44 52 53 54 54 63 71 72 72 79 82 74 63 55 57 60 61 65 65 62 57 54 61 61 61 71 85 85 86 90 87 94 101 101 88 87 85 84 83 79 71 80 78 83
43 48 54 56 56 65 72 73 76 81 79 75 66 54 58 61 64 68 70 64 65 61 60 61 60 62 78 84 85 82 86 90 92 103 105 99 91 93 86 82 80 79 91 71 70
48 54 58 59 62 69 73 81 84 80 64 64 59 60 64 67 68 73 74 74 72 68 67 68 58 68 76 82 83 77 80 85 91 101 110 105 98 92 88 79 77 81 86 84 72
51 62 62 64 70 75 80 86 82 70 62 61 63 67 69 67 72 76 81 84 73 71 76 74 63 70 71 77 77 72 74 85 89 95 104 109 104 96 89 82 79 81 82 76 76
59 62 63 67 74 81 80 86 74 67 68 69 68 68 73 73 75 78 82 84 79 71 72 72 66 69 68 72 69 60 68 83 94 99 104 110 108 101 91 82 80 80 87 84 80
61 64 68 75 80 82 87 81 70 70 75 76 82 84 82 82 78 77 82 81 69 65 67 54 68 64 66 62 61 56 67 80 95 104 101 109 112 100 96 89 81 78 83 84 75
64 67 74 80 80 84 83 71 71 75 77 86 86 89 91 87 76 71 68 73 64 59 55 52 60 60 56 59 54 61 64 75 91 107 106 108 107 108 98 79 80 74 85 82 76
63 71 78 82 83 84 73 72 74 76 83 90 94 94 88 85 76 71 66 61 56 52 44 51 53 53 57 53 54 58 61 73 87 105 107 104 102 105 91 89 84 75 88 84 79
66 74 82 82 84 75 72 73 78 86 92 95 96 94 91 87 75 65 61 54 49 45 42 46 45 49 52 47 54 56 60 71 79 90 100 101 99 98 99 93 86 80 86 89 84
70 78 84 85 75 72 73 79 86 92 97 96 93 90 88 77 65 56 53 48 41 38 39 40 43 44 45 45 48 49 57 66 76 82 97 100 89 99 97 95 89 86 87 84 82
74 83 85 77 69 71 79 86 92 96 94 91 90 85 73 62 54 46 45 38 33 33 37 37 41 43 44 45 45 43 58 68 75 82 96 96 92 95 98 96 90 85 78 83 78
79 81 83 70 71 77 83 90 94 95 88 85 77 69 61 52 45 37 32 30 31 32 30 33 36 39 37 41 40 48 56 62 68 79 88 94 96 98 99 96 89 82 82 81 80
79 83 73 70 75 82 88 93 96 89 85 78 65 57 51 44 36 29 26 24 22 20 22 29 32 32 38 39 45 50 55 56 65 75 85 93 97 100 102 100 92 85 84 81 86
80 76 66 72 79 86 93 98 91 84 79 68 59 49 42 35 28 21 16 12 12 17 21 25 30 36 37 38 45 49 53 56 62 77 91 101 103 104 102 101 98 94 91 85 85
80 64 69 75 82 90 94 95 87 82 74 66 53 45 37 28 19 12 10 9 11 15 21 24 25 30 32 38 44 49 52 61 68 76 92 101 106 103 102 96 93 92 86 87 85
65 64 68 76 84 92 96 90 86 75 69 59 50 41 31 22 14 8 7 9 10 14 19 22 28 33 33 38 46 53 60 67 74 82 95 102 105 99 99 94 92 91 81 82 80
62 65 70 78 87 93 95 89 83 73 61 54 46 34 26 20 12 8 5 6 8 15 20 24 28 33 37 40 43 51 58 65 76 86 92 100 96 95 98 93 91 91 86 82 78
58 62 70 78 87 92 93 85 78 68 59 51 42 31 27 19 15 12 4 5 13 19 22 26 28 32 38 44 50 56 59 66 77 90 99 100 108 104 102 96 92 88 84 79 74
Wind_Direction
289 291 292 291 287 300 299 297 297 293 292 288 284 281 275 266 264 262 261 257 253 248 245 243 242 242 231 238 237 232 229 220 225 233 234 234 234 227 223 225 229 224 220 227 232
294 296 292 286 293 297 296 293 290 290 290 289 289 285 283 275 268 262 260 258 254 254 249 245 242 240 239 234 235 237 229 219 219 222 227 232 238 230 225 226 228 226 219 225 228
292 290 287 290 292 293 294 293 291 292 295 294 290 289 287 283 274 273 261 258 255 255 253 249 246 242 238 237 237 231 231 225 220 221 221 224 233 232 228 226 228 230 217 227 226
292 292 290 292 299 298 299 297 299 297 297 298 299 300 295 288 283 275 267 261 257 253 252 251 248 245 240 237 236 234 224 230 224 223 223 221 228 230 226 226 227 225 211 228 227
293 294 294 300 308 302 301 299 298 297 298 300 301 303 303 300 287 277 271 263 258 256 252 250 249 247 244 240 236 232 231 224 227 226 222 222 224 228 225 226 226 222 212 229 229
298 302 304 305 301 301 301 301 302 303 307 305 304 303 307 300 293 281 276 270 263 259 256 250 247 247 245 242 239 234 228 225 222 226 225 225 223 225 224 227 227 222 217 225 229
302 306 305 302 302 302 305 304 304 305 306 303 305 304 304 299 289 279 275 274 268 262 260 256 252 248 244 243 241 235 230 225 222 221 223 223 221 224 222 226 224 217 215 227 232
303 307 307 307 306 303 302 305 308 306 304 303 300 302 300 292 281 276 275 269 267 266 263 261 258 255 251 245 241 238 232 225 224 223 219 224 219 220 220 223 220 216 207 230 227
303 304 307 308 309 307 309 309 308 307 306 304 302 302 293 283 281 279 275 274 272 267 266 264 259 256 256 250 244 238 236 228 221 223 224 221 219 222 218 219 220 211 192 226 220
303 308 312 310 314 312 311 308 308 309 307 304 302 296 288 281 278 277 277 279 282 278 271 268 265 263 259 252 246 240 234 230 220 221 223 218 215 217 218 219 218 208 206 224 220
307 307 313 314 315 314 311 312 311 312 308 303 303 297 293 291 290 288 286 288 285 284 277 271 266 263 254 253 249 242 237 233 223 219 218 221 216 216 216 216 215 211 208 221 214
305 307 315 317 316 314 313 316 314 312 308 304 302 301 297 296 296 295 296 295 291 289 285 277 266 261 254 254 251 246 235 228 226 220 218 216 217 215 216 214 213 209 208 215 215
303 314 314 315 314 314 315 315 314 311 308 302 302 298 296 298 295 295 295 293 291 289 284 276 271 258 255 254 252 243 232 223 221 220 219 214 216 213 216 214 213 210 205 215 207
312 314 315 315 315 316 315 316 313 310 307 305 301 301 300 298 297 297 294 291 289 281 274 271 266 258 253 251 250 239 229 220 215 217 215 214 213 213 213 213 213 211 205 214 204
313 316 316 318 317 317 316 316 314 312 310 310 310 309 308 306 304 301 296 288 282 272 267 266 261 257 250 246 245 232 223 216 213 214 211 212 211 209 211 211 211 211 206 214 205
315 319 319 319 319 318 318 315 314 313 312 308 309 310 310 307 306 301 293 289 281 276 265 258 254 252 246 243 239 228 220 214 212 211 210 210 207 209 210 208 210 209 208 210 203
319 318 319 321 319 320 317 317 315 312 313 313 313 313 313 311 310 304 296 286 282 276 262 253 250 244 244 239 233 227 217 213 212 210 209 208 206 204 204 207 208 207 207 206 203
318 318 321 321 320 318 316 317 317 318 316 316 317 317 313 310 306 299 292 286 278 273 261 250 247 239 238 234 231 224 214 211 213 210 207 207 203 201 202 206 204 207 207 204 202
318 320 322 322 321 321 320 321 320 318 319 319 318 315 310 308 303 298 290 286 282 270 257 247 238 237 234 230 227 221 211 210 207 205 205 206 198 203 200 204 205 206 207 201 203
319 321 322 323 321 321 323 322 320 322 322 321 317 314 311 307 302 295 289 285 277 262 252 243 235 231 228 222 219 208 207 207 203 201 203 198 196 201 200 203 205 206 205 202 203
321 325 325 322 324 327 324 324 325 326 324 319 318 315 313 308 304 298 285 271 257 251 247 238 231 226 224 214 208 204 208 202 199 200 197 193 194 197 200 202 204 205 205 199 198
324 326 327 328 327 327 327 329 330 328 324 323 324 320 315 313 309 297 283 275 270 257 239 228 222 214 212 206 202 195 201 200 198 194 190 189 194 198 198 198 202 205 206 201 201
327 327 328 327 329 329 329 331 331 330 329 330 330 326 324 319 310 300 287 260 248 231 218 216 207 206 208 195 197 198 193 191 190 193 189 188 194 198 198 199 199 202 205 202 205
328 330 331 331 332 330 332 334 336 335 336 336 336 334 331 325 317 298 264 232 221 216 206 201 197 199 203 199 191 194 191 188 185 189 189 191 196 196 197 197 200 206 206 206 206
331 332 331 333 332 333 336 339 341 341 340 341 343 341 339 340 327 304 265 222 203 196 194 185 186 192 189 192 187 190 190 186 182 186 188 195 197 195 194 196 200 207 206 209 210
329 332 334 335 334 336 340 343 345 345 345 349 349 349 355 354 353 335 290 224 181 172 179 181 185 190 185 183 183 190 192 189 183 184 190 195 196 196 195 193 198 205 205 210 212
332 333 335 336 335 339 343 347 349 349 353 355 356 4 8 11 16 7 337 176 173 169 174 178 180 182 175 176 182 189 194 189 187 190 191 191 195 194 194 194 197 202 205 208 214
Height
10675 10673 10672 10669 10666 10664 10661 10659 10656 10652 10649 10647 10646 10645 10642 10642 10642 10639 10638 10640 10641 10641 10645 10648 10650 10653 10659 10661 10664 10667 10682 10703 10709 10706 10713 10719 10714 10736 10739 10746 10750 10762 10784 10788 10794
10669 10668 10665 10662 10659 10657 10654 10650 10647 10643 10639 10636 10635 10633 10631 10629 10629 10627 10625 10626 10627 10627 10630 10633 10636 10640 10646 10647 10651 10657 10670 10685 10680 10687 10699 10700 10693 10720 10730 10737 10739 10750 10777 10784 10786
10663 10661 10658 10655 10652 10649 10645 10641 10638 10634 10629 10627 10624 10622 10618 10616 10615 10613 10610 10611 10613 10613 10614 10617 10619 10623 10631 10633 10635 10643 10667 10657 10664 10671 10681 10686 10691 10703 10715 10725 10731 10745 10765 10769 10770
10656 10654 10651 10648 10645 10641 10636 10632 10629 10625 10620 10617 10613 10609 10606 10602 10600 10601 10594 10595 10596 10598 10597 10600 10601 10604 10611 10616 10617 10630 10644 10644 10651 10654 10664 10679 10680 10686 10702 10714 10719 10728 10753 10750 10760
10649 10646 10644 10640 10636 10632 10627 10623 10620 10615 10610 10604 10599 10595 10591 10586 10585 10581 10576 10578 10579 10579 10581 10581 10583 10584 10590 10595 10599 10618 10620 10625 10633 10641 10650 10659 10670 10675 10694 10701 10700 10718 10745 10739 10749
10642 10639 10635 10631 10627 10622 10618 10613 10608 10603 10597 10591 10584 10578 10573 10566 10564 10562 10555 10557 10559 10560 10560 10561 10564 10564 10572 10573 10580 10585 10594 10607 10616 10628 10636 10648 10653 10656 10687 10687 10702 10713 10735 10733 10741
10634 10630 10626 10622 10617 10612 10607 10602 10597 10591 10584 10577 10569 10563 10557 10547 10542 10540 10539 10537 10537 10536 10537 10539 10542 10545 10548 10551 10554 10561 10570 10586 10600 10613 10623 10627 10636 10663 10673 10673 10691 10705 10727 10732 10734
10626 10622 10618 10613 10607 10602 10596 10589 10583 10576 10568 10559 10551 10545 10538 10532 10522 10520 10519 10515 10514 10513 10516 10516 10518 10524 10525 10525 10531 10535 10544 10566 10587 10590 10603 10605 10641 10646 10652 10661 10682 10701 10722 10721 10729
10618 10614 10609 10602 10595 10588 10582 10574 10567 10558 10548 10538 10531 10521 10517 10513 10506 10501 10495 10490 10493 10495 10499 10494 10496 10501 10501 10496 10501 10513 10530 10546 10562 10575 10578 10595 10620 10626 10632 10647 10666 10692 10694 10695 10712
10610 10604 10598 10590 10582 10574 10566 10560 10549 10542 10528 10515 10507 10502 10496 10491 10487 10483 10476 10473 10473 10473 10476 10471 10473 10479 10471 10462 10482 10486 10498 10518 10536 10545 10552 10576 10593 10598 10613 10630 10651 10673 10681 10675 10698
10601 10594 10587 10578 10569 10560 10549 10541 10531 10522 10507 10489 10484 10486 10474 10469 10466 10459 10452 10454 10451 10451 10449 10445 10448 10448 10434 10438 10452 10462 10476 10494 10509 10517 10533 10557 10569 10577 10594 10614 10634 10650 10660 10671 10689
10590 10583 10574 10565 10556 10546 10536 10521 10510 10496 10492 10473 10472 10466 10458 10451 10447 10435 10426 10424 10422 10423 10419 10414 10425 10411 10409 10412 10424 10436 10449 10468 10481 10495 10506 10533 10550 10569 10581 10607 10621 10636 10650 10664 10679
10581 10572 10563 10553 10542 10532 10520 10504 10491 10479 10471 10465 10458 10450 10442 10440 10429 10419 10407 10393 10398 10397 10387 10380 10394 10383 10383 10387 10396 10407 10422 10438 10457 10472 10491 10514 10531 10548 10571 10592 10606 10621 10642 10649 10675
10570 10562 10551 10542 10530 10516 10504 10489 10474 10462 10452 10443 10440 10435 10422 10419 10411 10399 10386 10372 10369 10364 10358 10351 10360 10355 10359 10362 10369 10387 10397 10410 10427 10435 10460 10485 10510 10532 10557 10581 10597 10610 10627 10641 10665
10560 10550 10538 10526 10515 10500 10484 10470 10457 10446 10429 10420 10399 10393 10390 10382 10376 10378 10352 10333 10334 10332 10325 10340 10327 10330 10332 10343 10348 10366 10368 10382 10401 10413 10441 10459 10488 10526 10538 10558 10584 10603 10622 10631 10658
10549 10538 10526 10512 10499 10483 10467 10453 10441 10427 10414 10393 10389 10372 10360 10345 10342 10334 10323 10301 10299 10300 10302 10306 10302 10305 10316 10321 10332 10336 10350 10364 10377 10392 10412 10439 10475 10498 10525 10572 10582 10595 10611 10626 10651
10539 10529 10515 10500 10482 10466 10451 10439 10424 10412 10396 10375 10360 10346 10330 10314 10304 10295 10287 10278 10275 10275 10280 10276 10280 10288 10293 10304 10312 10321 10335 10348 10355 10368 10401 10430 10461 10495 10537 10545 10565 10582 10594 10617 10639
10529 10518 10504 10487 10470 10454 10439 10424 10409 10390 10371 10356 10334 10317 10300 10290 10279 10267 10259 10255 10255 10255 10255 10258 10266 10272 10280 10290 10297 10307 10318 10333 10351 10372 10407 10427 10453 10493 10509 10530 10552 10567 10585 10602 10623
10520 10505 10489 10472 10454 10440 10423 10409 10391 10372 10353 10334 10320 10297 10278 10265 10253 10246 10237 10233 10237 10238 10239 10244 10250 10260 10268 10276 10286 10297 10309 10326 10340 10365 10394 10418 10467 10474 10503 10518 10537 10551 10568 10602 10621
10508 10494 10476 10459 10445 10429 10410 10392 10373 10353 10333 10312 10291 10271 10255 10243 10234 10227 10221 10221 10222 10222 10225 10233 10239 10245 10252 10263 10275 10292 10299 10309 10330 10353 10374 10417 10450 10474 10490 10509 10528 10545 10573 10594 10608
10496 10482 10463 10447 10431 10415 10398 10379 10356 10335 10315 10295 10274 10251 10236 10225 10217 10212 10208 10207 10206 10209 10216 10223 10230 10239 10249 10258 10272 10281 10293 10307 10330 10350 10378 10412 10437 10455 10476 10500 10523 10542 10562 10582 10597
10485 10469 10451 10434 10419 10402 10382 10361 10341 10318 10295 10271 10254 10236 10222 10212 10204 10199 10197 10198 10201 10206 10211 10215 10224 10235 10241 10253 10262 10274 10288 10311 10328 10348 10375 10406 10422 10437 10458 10481 10510 10529 10549 10568 10580
10474 10458 10444 10428 10410 10390 10366 10346 10322 10302 10275 10254 10238 10222 10210 10202 10195 10191 10190 10192 10196 10200 10204 10211 10221 10227 10237 10251 10260 10274 10289 10309 10327 10344 10367 10386 10402 10426 10453 10473 10492 10506 10527 10552 10567
10466 10450 10434 10417 10399 10377 10357 10335 10313 10283 10260 10241 10227 10213 10202 10195 10189 10186 10186 10189 10193 10198 10203 10210 10220 10227 10239 10248 10259 10272 10291 10302 10321 10347 10365 10382 10389 10416 10446 10475 10495 10505 10524 10543 10559
10458 10444 10429 10412 10391 10368 10346 10321 10298 10278 10252 10234 10219 10208 10199 10192 10187 10186 10187 10189 10193 10198 10204 10212 10219 10226 10236 10246 10259 10268 10278 10292 10312 10332 10353 10368 10390 10418 10444 10470 10493 10505 10531 10540 10556
10452 10436 10420 10405 10382 10361 10338 10313 10290 10268 10249 10231 10218 10207 10199 10193 10190 10189 10191 10193 10196 10201 10206 10213 10220 10227 10236 10249 10265 10271 10285 10299 10315 10328 10357 10365 10399 10421 10440 10462 10481 10496 10517 10528 10550
10448 10435 10418 10400 10378 10357 10335 10311 10287 10264 10245 10230 10218 10208 10202 10198 10196 10195 10195 10195 10197 10202 10208 10215 10222 10229 10238 10248 10257 10270 10283 10299 10316 10326 10341 10359 10373 10400 10430 10454 10470 10490 10511 10532 10548